Nausori, Fiji

12:12 PM +12 on October 20, 2017 (GMT +1200)
Nausori International

Weather History for NFNA - January, 2005

Change the Weather History Date:

Sunday, January 16, 2005

  Actual Average Record
Temperature  
Mean Temperature 78 °F -  
Max Temperature 84 °F 88 °F - ()
Min Temperature 73 °F 75 °F - ()
Cooling Degree Days 14    
Growing Degree Days 28 (Base 50)    
Moisture  
Dew Point 77 °F    
Average Humidity 94    
Maximum Humidity 100    
Minimum Humidity 79    
Precipitation  
Precipitation 0.83 in 0.39 in - ()
Sea Level Pressure  
Sea Level Pressure 29.81 in    
Wind  
Wind Speed 1 mph ()    
Max Wind Speed 8 mph    
Max Gust Speed -    
Visibility 7.4 miles    
Events Rain    
T = Trace of Precipitation, MM = Missing Value Source: Averaged Metar Reports

Daily Weather History Graph

Daily Weather History Graph

Search for Another Location

Airport or City:

Trip Planner

Search our weather history database for the weather conditions in past years. The results will help you decide how hot, cold, wet, or windy it might be!

Date:

Astronomy

Jan. 16, 2005 Rise Set
Actual Time 5:42 AM +12 6:47 PM +12
Civil Twilight 5:19 AM +12 7:11 PM +12
Nautical Twilight 4:51 AM +12 7:39 PM +12
Astronomical Twilight 4:22 AM +12 8:08 PM +12
Moon 11:07 AM +12 (1/16) 11:17 PM +12 (1/16)
Length of Visible Light 13h 52m
Length of Day
13h 05m
Waxing Crescent, 36% of the Moon is Illuminated
Jan 16
Waxing Crescent
Jan 17
First Quarter
Jan 25
Full
Feb 2
Last Quarter
Feb 9
New

Hourly Weather History & Observations

Time (+12) Temp. Heat Index Dew Point Humidity Pressure Visibility Wind Dir Wind Speed Gust Speed Precip Events Conditions
12:00 AM 76 °F - 76 °F 98% 29.84 in 31 mi Calm Calm - -   Partly Cloudy
12:00 AM 77.0 °F - 75.2 °F 94% 29.83 in 31.1 mi Calm Calm - N/A   Partly Cloudy
1:00 AM 75.2 °F - 75.2 °F 100% 29.80 in 31.1 mi Calm Calm - N/A   Partly Cloudy
2:00 AM 75.2 °F - 75.2 °F 100% 29.77 in 31.1 mi Calm Calm - N/A   Partly Cloudy
3:00 AM 75 °F - 75 °F 100% 29.78 in 31 mi Calm Calm - -   Partly Cloudy
3:00 AM 75.2 °F - 75.2 °F 100% 29.77 in 31.1 mi Calm Calm - N/A   Partly Cloudy
4:00 AM 75.2 °F - 75.2 °F 100% 29.77 in 31.1 mi Calm Calm - N/A   Partly Cloudy
5:00 AM 75.2 °F - 75.2 °F 100% 29.77 in 31.1 mi Calm Calm - N/A   Partly Cloudy
6:00 AM 75 °F - 74 °F 98% 29.80 in 31 mi Calm Calm - -   Partly Cloudy
6:00 AM 75.2 °F - 75.2 °F 100% 29.80 in 31.1 mi Calm Calm - N/A   Mostly Cloudy
7:00 AM 77.0 °F - 77.0 °F 100% 29.80 in 31.1 mi Calm Calm - N/A   Scattered Clouds
8:00 AM 80.6 °F 87.1 °F 77.0 °F 89% 29.83 in 31.1 mi Variable 2.3 mph - N/A   Mostly Cloudy
9:00 AM 82 °F - 79 °F 88% 29.84 in 31 mi Calm Calm - - Rain Light Rain Showers
9:00 AM 82.4 °F 92.4 °F 78.8 °F 89% 29.83 in 31.1 mi Calm Calm - N/A   Mostly Cloudy
10:00 AM 84.2 °F 96.1 °F 78.8 °F 84% 29.83 in 18.6 mi Calm Calm - N/A Rain Light Rain Showers
11:00 AM 82.4 °F 90.9 °F 77.0 °F 84% 2.98 in 24.9 mi North 5.8 mph - N/A Rain Light Rain Showers
12:00 PM 81 °F - 79 °F 90% 29.83 in 12 mi East 6.9 mph - - Rain Light Rain Showers
12:00 PM 80.6 °F 88.1 °F 78.8 °F 94% 29.83 in 18.6 mi East 6.9 mph - N/A Rain Light Rain
1:00 PM 84.2 °F 94.1 °F 77.0 °F 79% 29.80 in 24.9 mi ESE 8.1 mph - N/A   Overcast
2:00 PM 82.4 °F 90.9 °F 77.0 °F 84% 29.80 in 3.7 mi Calm Calm - N/A Rain Light Rain Showers
2:10 PM 82.4 °F 90.9 °F 77.0 °F 84% 29.80 in 1.9 mi Calm Calm - N/A Rain Rain Showers
3:00 PM 78 °F - 77 °F 96% 29.81 in 2 mi Calm Calm - - Rain Light Rain Showers
3:00 PM 78.8 °F - 77.0 °F 94% 29.80 in 3.7 mi Calm Calm - N/A Rain Light Rain Showers
4:00 PM 78.8 °F - 77.0 °F 94% 29.80 in 5.0 mi East 5.8 mph - N/A Rain Light Rain Showers
5:00 PM 78.8 °F - 77.0 °F 94% 29.80 in 5.0 mi East 5.8 mph - N/A Rain Light Rain Showers
6:00 PM 78 °F - 77 °F 95% 29.83 in 6 mi Calm Calm - - Rain Light Rain
6:00 PM 78.8 °F - 77.0 °F 94% 29.83 in 6.2 mi Calm Calm - N/A   Overcast
7:00 PM 78.8 °F - 77.0 °F 94% 29.83 in 6.2 mi SE 5.8 mph - N/A   Overcast
8:00 PM 78.8 °F - 77.0 °F 94% 29.83 in 6.2 mi East 5.8 mph - N/A   Overcast
9:00 PM 78 °F - 77 °F 94% 29.86 in 6 mi SE 5.8 mph - -   Partly Cloudy
9:00 PM 77.0 °F - 77.0 °F 100% 29.86 in 6.2 mi SE 5.8 mph - N/A   Overcast
10:00 PM 77.0 °F - 77.0 °F 100% 29.86 in 6.2 mi Calm Calm - N/A Rain Light Rain
11:00 PM 77.0 °F - 77.0 °F 100% 2.98 in 12.4 mi Calm Calm - N/A Rain Light Rain Showers